Miscellaneous Local Product
Issued by NWS North Platte, NE

Home | Current Version | Previous Version | Graphics & Text | Print | Product List | Glossary On
Versions: 1 2 3 4 5 6 7 8 9 10 11 12 13 14 15 16 17 18 19 20 21 22 23 24 25 26 27 28 29 30 31 32 33 34 35 36 37 38 39 40 41 42 43 44 45 46 47 48 49 50
000
AXUS43 KLBF 301110
MISLBF


WESTERN AND NORTH CENTRAL NEBRASKA HOURLY WEATHER ROUNDUP
NATIONAL WEATHER SERVICE NORTH PLATTE NE
600 AM CDT TUE JUN 30 2015

***STATIONS NOT REPORTING VARIABLES SUCH AS SKY/WEATHER OR
PRESSURE ARE PROVIDED BY THE NEBRASKA DEPARTMENT OF
ROADS...RAWS...AND APRS NETWORKS...AND ARE NOT UNDER
NATIONAL WEATHER SERVICE QUALITY CONTROL***

...OBSERVATIONS IN AND NEAR THE EASTERN PANHANDLE OF NEBRASKA...

CITY           SKY/WX    TMP DP  RH WIND       PRES   REMARKS
PINE RIDGE     MOCLDY    61  55  81 CALM      30.01S
CHADRON        PTCLDY    59  55  87 CALM      30.00F
ALLIANCE       MOCLDY    54  52  93 CALM      30.05F
SIDNEY         PTCLDY    58  56  93 NW9       30.10S
WHITECLAY        N/A     59  55  88 CALM        N/A
CRESCENT LAKE    N/A     64  59  84 CALM        N/A
$$

...OBSERVATIONS IN NORTH CENTRAL NEBRASKA...

CITY           SKY/WX    TMP DP  RH WIND       PRES   REMARKS
VALENTINE      PTCLDY    64  59  83 W6        29.96S
THEDFORD       PTCLDY    61  58  90 CALM      30.02S
AINSWORTH      CLEAR     66  57  72 SW9       29.97S
O`NEILL        MOCLDY    66  62  85 NE6       29.98R
ORD            PTCLDY    60  57  89 CALM      29.96S
BROKEN BOW     CLEAR     62  58  86 CALM      29.99S
VALENTINE NWR    N/A     64  60  86 SW6         N/A
SPRINGVIEW       N/A     57  55  93 CALM        N/A
HALSEY           N/A     66  57  72 CALM        N/A
BREWSTER         N/A     64  61  91 CALM        N/A
NEWPORT          N/A     70  60  69 E7          N/A
SARGENT          N/A     58  57  97 CALM        N/A
CHAMBERS         N/A     66  58  76 CALM        N/A
EWING            N/A     66  63  90 CALM        N/A
$$

...OBSERVATIONS IN SOUTHWEST NEBRASKA AND FAR NORTHEAST COLORADO...

CITY           SKY/WX    TMP DP  RH WIND       PRES   REMARKS
WRAY           FAIR      58  56  91 W3        30.07S
HOLYOKE        FAIR      61  55  82 W6        30.06S
IMPERIAL       CLEAR     61  56  83 SW3       30.03S
OGALLALA       PTCLDY    59  57  91 CALM      30.04S
NORTH PLATTE   CLEAR     60  57  89 CALM      30.02R
MCCOOK         CLEAR     62  58  86 W8        30.00S
LEXINGTON      CLEAR     61  59  91 CALM      29.99S
PAXTON           N/A     60  57  89 CALM        N/A
GOTHENBURG       N/A     64  55  73 CALM        N/A
CALLAWAY         N/A     62  60  92 SE6         N/A
$$

...NORTH PLATTE AREA...

CITY           SKY/WX    TMP DP  RH WIND       PRES   REMARKS
AIRPORT        CLEAR     60  57  89 CALM      30.02R
DOWNTOWN         N/A     63  60  88 CALM        N/A
HILLCREST        N/A     66  59  79 CALM        N/A
$$

...SOME WEATHER OBSERVATIONS FROM AROUND THE REGION...

CITY           SKY/WX    TMP DP  RH WIND       PRES   REMARKS
DENVER         PTCLDY    65  50  58 SW9       30.17F
LARAMIE        PTCLDY    50  44  80 S7        30.31R
CHEYENNE       MOCLDY    57  44  62 W10       30.22S
SCOTTSBLUFF    PTCLDY    58  54  86 NW6       30.06F
RAPID CITY     MOCLDY    69  53  56 CALM      29.96S
PIERRE         CLOUDY    68  62  81 E13       29.92S
WINNER         FAIR      70  59  68 SE10      29.95S
SIOUX FALLS    CLOUDY    64  61  90 CALM      29.95R
OMAHA          CLOUDY    67  63  87 E3        29.91R
GRAND ISLAND   PTCLDY    64  59  83 W3        29.97S
KANSAS CITY    CLOUDY    67  64  90 SW7       29.92S
WICHITA        PTCLDY    67  59  75 CALM      29.97R
HAYS           CLEAR     64  52  63 NW8       29.99S
LIBERAL        CLEAR     64  54  68 SW6         N/A
GOODLAND       CLEAR     63  54  72 W9        30.07S
$$



USA.gov is the U.S. government's official web portal to all federal, state and local government web resources and services.